Time,TemperatureF,DewpointF,PressureIn,WindDirection,WindDirectionDegrees,WindSpeedMPH,WindSpeedGustMPH,Humidity,HourlyPrecipIn,Conditions,Clouds,dailyrainin,SoftwareType,DateUTC
2013-10-23 00:00:00,39.3,37.2,30.08,WNW,293,2.0,10.0,92,0.00,,SKC,0.02,VWS V12.07,2013-10-23 05:00:00,
2013-10-23 00:06:00,39.3,37.2,30.08,North,354,2.0,5.0,92,0.00,,SKC,0.00,VWS V12.07,2013-10-23 05:06:00,
2013-10-23 00:12:00,39.2,37.3,30.09,North,11,2.0,5.0,93,0.00,,SKC,0.00,VWS V12.07,2013-10-23 05:12:00,
2013-10-23 00:18:00,39.1,37.2,30.08,West,280,3.0,5.0,93,0.00,,SKC,0.00,VWS V12.07,2013-10-23 05:18:00,
2013-10-23 00:24:00,39.1,37.2,30.08,WNW,283,0.0,6.0,93,0.00,,SKC,0.00,VWS V12.07,2013-10-23 05:24:00,
2013-10-23 00:30:00,39.1,37.2,30.08,NW,321,4.0,6.0,93,0.00,,SKC,0.00,VWS V12.07,2013-10-23 05:30:00,
2013-10-23 00:36:00,39.1,37.2,30.09,WNW,284,1.0,7.0,93,0.00,,SKC,0.00,VWS V12.07,2013-10-23 05:36:00,
2013-10-23 00:42:00,39.1,37.2,30.09,West,277,4.0,9.0,93,0.00,,SKC,0.00,VWS V12.07,2013-10-23 05:42:00,
2013-10-23 00:48:00,39.1,37.2,30.09,WNW,302,3.0,9.0,93,0.00,,SKC,0.00,VWS V12.07,2013-10-23 05:48:00,
2013-10-23 00:54:00,39.1,37.2,30.08,West,277,3.0,9.0,93,0.00,,SKC,0.00,VWS V12.07,2013-10-23 05:54:00,
2013-10-23 01:00:00,39.1,37.0,30.08,North,5,1.0,9.0,92,0.00,,SKC,0.00,VWS V12.07,2013-10-23 06:00:00,
2013-10-23 01:06:00,39.1,37.0,30.08,NW,319,0.0,4.0,92,0.00,,SKC,0.00,VWS V12.07,2013-10-23 06:06:00,
2013-10-23 01:12:00,39.1,37.0,30.08,NW,311,0.0,4.0,92,0.00,,SKC,0.00,VWS V12.07,2013-10-23 06:12:00,
2013-10-23 01:18:00,39.0,36.9,30.08,West,277,1.0,4.0,92,0.00,,SKC,0.00,VWS V12.07,2013-10-23 06:18:00,
2013-10-23 01:23:00,39.0,36.9,30.08,NNW,327,2.0,4.0,92,0.00,,SKC,0.00,VWS V12.07,2013-10-23 06:23:00,
2013-10-23 01:31:00,38.9,36.2,30.08,NW,305,3.0,5.0,90,0.00,,SKC,0.00,VWS V12.07,2013-10-23 06:31:00,
2013-10-23 01:36:00,38.8,36.1,30.08,North,357,2.0,6.0,90,0.00,,SKC,0.00,VWS V12.07,2013-10-23 06:36:00,
2013-10-23 01:41:00,38.7,36.0,30.08,West,278,3.0,6.0,90,0.00,,SKC,0.00,VWS V12.07,2013-10-23 06:41:00,
2013-10-23 01:46:00,38.5,35.8,30.09,WNW,293,2.0,6.0,90,0.00,,SKC,0.00,VWS V12.07,2013-10-23 06:46:00,
2013-10-23 01:52:00,38.3,35.6,30.09,West,281,1.0,6.0,90,0.00,,SKC,0.00,VWS V12.07,2013-10-23 06:52:00,
2013-10-23 01:58:00,38.0,35.3,30.09,NW,304,2.0,6.0,90,0.00,,SKC,0.00,VWS V12.07,2013-10-23 06:58:00,
2013-10-23 02:03:00,37.9,35.2,30.09,WNW,285,2.0,3.0,90,0.00,,SKC,0.00,VWS V12.07,2013-10-23 07:03:00,
2013-10-23 02:08:00,37.6,34.9,30.09,WNW,294,1.0,5.0,90,0.00,,SKC,0.00,VWS V12.07,2013-10-23 07:08:00,
2013-10-23 02:14:00,37.4,34.7,30.09,WNW,300,2.0,5.0,90,0.00,,SKC,0.00,VWS V12.07,2013-10-23 07:14:00,
2013-10-23 02:22:00,37.1,34.4,30.10,NNW,328,3.0,6.0,90,0.00,,SKC,0.00,VWS V12.07,2013-10-23 07:22:00,
2013-10-23 02:27:00,37.0,34.3,30.09,WNW,283,1.0,6.0,90,0.00,,SKC,0.00,VWS V12.07,2013-10-23 07:27:00,
2013-10-23 02:33:00,36.7,34.0,30.09,WNW,293,1.0,3.0,90,0.00,,SKC,0.00,VWS V12.07,2013-10-23 07:33:00,
2013-10-23 02:39:00,36.5,33.8,30.09,WNW,287,2.0,3.0,90,0.00,,SKC,0.00,VWS V12.07,2013-10-23 07:39:00,
2013-10-23 02:45:00,36.3,33.9,30.10,NW,304,3.0,5.0,91,0.00,,SKC,0.00,VWS V12.07,2013-10-23 07:45:00,
2013-10-23 02:52:00,36.0,33.6,30.10,West,278,0.0,5.0,91,0.00,,SKC,0.00,VWS V12.07,2013-10-23 07:52:00,
2013-10-23 02:58:00,35.7,33.3,30.09,WNW,295,1.0,5.0,91,0.00,,SKC,0.00,VWS V12.07,2013-10-23 07:58:00,
2013-10-23 03:04:00,35.6,33.5,30.09,NW,313,3.0,3.0,92,0.00,,SKC,0.00,VWS V12.07,2013-10-23 08:04:00,
2013-10-23 03:10:00,35.4,33.3,30.09,West,281,1.0,3.0,92,0.00,,SKC,0.00,VWS V12.07,2013-10-23 08:10:00,
2013-10-23 03:16:00,35.2,33.1,30.09,WNW,286,1.0,3.0,92,0.00,,SKC,0.00,VWS V12.07,2013-10-23 08:16:00,
2013-10-23 03:23:00,35.1,33.0,30.09,WNW,291,2.0,4.0,92,0.00,,SKC,0.00,VWS V12.07,2013-10-23 08:23:00,
2013-10-23 03:29:00,35.0,32.9,30.09,WNW,291,1.0,4.0,92,0.00,,SKC,0.00,VWS V12.07,2013-10-23 08:29:00,
2013-10-23 03:35:00,34.8,33.0,30.08,WNW,300,0.0,2.0,93,0.00,,SKC,0.00,VWS V12.07,2013-10-23 08:35:00,
2013-10-23 03:41:00,34.8,33.0,30.09,West,277,1.0,2.0,93,0.00,,SKC,0.00,VWS V12.07,2013-10-23 08:41:00,
2013-10-23 03:48:00,34.7,32.9,30.09,WNW,302,2.0,3.0,93,0.00,,SKC,0.00,VWS V12.07,2013-10-23 08:48:00,
2013-10-23 03:54:00,34.7,32.9,30.09,WNW,291,1.0,3.0,93,0.00,,SKC,0.00,VWS V12.07,2013-10-23 08:54:00,
2013-10-23 03:59:00,34.7,32.9,30.09,West,278,2.0,4.0,93,0.00,,SKC,0.00,VWS V12.07,2013-10-23 08:59:00,
2013-10-23 04:05:00,34.6,32.8,30.09,WNW,282,0.0,3.0,93,0.00,,SKC,0.00,VWS V12.07,2013-10-23 09:05:00,
2013-10-23 04:10:00,34.5,32.7,30.09,West,276,2.0,3.0,93,0.00,,SKC,0.00,VWS V12.07,2013-10-23 09:10:00,
2013-10-23 04:15:00,34.5,32.7,30.08,WNW,287,0.0,3.0,93,0.00,,SKC,0.00,VWS V12.07,2013-10-23 09:15:00,
2013-10-23 04:21:00,34.4,32.6,30.09,WNW,289,1.0,3.0,93,0.00,,SKC,0.00,VWS V12.07,2013-10-23 09:21:00,
2013-10-23 04:26:00,34.3,32.5,30.09,WNW,288,2.0,3.0,93,0.00,,SKC,0.00,VWS V12.07,2013-10-23 09:26:00,
2013-10-23 04:32:00,34.3,32.8,30.09,WNW,283,2.0,3.0,94,0.00,,SKC,0.00,VWS V12.07,2013-10-23 09:32:00,
2013-10-23 04:38:00,34.3,32.8,30.09,West,278,3.0,3.0,94,0.00,,SKC,0.00,VWS V12.07,2013-10-23 09:38:00,
2013-10-23 04:44:00,34.3,32.8,30.09,West,274,3.0,4.0,94,0.00,,SKC,0.00,VWS V12.07,2013-10-23 09:44:00,
2013-10-23 04:50:00,34.4,32.9,30.10,WNW,290,1.0,4.0,94,0.00,,SKC,0.00,VWS V12.07,2013-10-23 09:50:00,
2013-10-23 04:56:00,34.5,33.0,30.10,WNW,294,2.0,4.0,94,0.00,,SKC,0.00,VWS V12.07,2013-10-23 09:56:00,
2013-10-23 05:02:00,34.5,33.0,30.10,WNW,284,2.0,3.0,94,0.00,,SKC,0.00,VWS V12.07,2013-10-23 10:02:00,
2013-10-23 05:25:00,34.8,33.0,30.10,WNW,293,1.0,2.0,93,0.00,,SKC,0.00,VWS V12.07,2013-10-23 10:25:00,
2013-10-23 05:33:00,34.9,33.1,30.10,WNW,293,2.0,4.0,93,0.00,,SKC,0.00,VWS V12.07,2013-10-23 10:33:00,
2013-10-23 06:18:00,35.4,33.0,30.11,WNW,287,2.0,4.0,91,0.00,,SKC,0.00,VWS V12.07,2013-10-23 11:18:00,
2013-10-23 06:23:00,35.4,33.0,30.12,West,278,2.0,6.0,91,0.00,,SKC,0.00,VWS V12.07,2013-10-23 11:23:00,
2013-10-23 06:32:00,35.3,32.9,30.12,WNW,286,3.0,3.0,91,0.00,,SKC,0.00,VWS V12.07,2013-10-23 11:32:00,
2013-10-23 06:38:00,35.4,33.0,30.12,WNW,285,3.0,4.0,91,0.00,,SKC,0.00,VWS V12.07,2013-10-23 11:38:00,
2013-10-23 06:44:00,35.4,33.0,30.12,West,281,2.0,4.0,91,0.00,,SKC,0.00,VWS V12.07,2013-10-23 11:44:00,
2013-10-23 06:55:00,35.4,33.0,30.12,WNW,287,3.0,4.0,91,0.00,,SKC,0.00,VWS V12.07,2013-10-23 11:55:00,
2013-10-23 07:01:00,35.3,32.9,30.12,WNW,285,4.0,5.0,91,0.00,,SKC,0.00,VWS V12.07,2013-10-23 12:01:00,
2013-10-23 07:07:00,35.3,32.7,30.12,WNW,288,2.0,6.0,90,0.00,,SKC,0.00,VWS V12.07,2013-10-23 12:07:00,
2013-10-23 07:13:00,35.0,32.6,30.12,WNW,295,1.0,3.0,91,0.00,,SKC,0.00,VWS V12.07,2013-10-23 12:13:00,
2013-10-23 07:19:00,34.8,32.5,30.12,West,269,3.0,3.0,91,0.00,,SKC,0.00,VWS V12.07,2013-10-23 12:19:00,
2013-10-23 07:24:00,34.6,32.2,30.12,WNW,294,2.0,3.0,91,0.00,,SKC,0.00,VWS V12.07,2013-10-23 12:24:00,
2013-10-23 07:30:00,34.5,32.2,30.12,WNW,287,2.0,4.0,91,0.00,,SKC,0.00,VWS V12.07,2013-10-23 12:30:00,
2013-10-23 07:36:00,34.3,32.0,30.12,WNW,291,1.0,3.0,91,0.00,,SKC,0.00,VWS V12.07,2013-10-23 12:36:00,
2013-10-23 07:42:00,34.3,32.0,30.12,West,281,1.0,4.0,91,0.00,,SKC,0.00,VWS V12.07,2013-10-23 12:42:00,
2013-10-23 07:48:00,34.5,32.2,30.12,WNW,288,1.0,4.0,91,0.00,,SKC,0.00,VWS V12.07,2013-10-23 12:48:00,
2013-10-23 07:53:00,34.5,32.2,30.13,West,281,3.0,5.0,91,0.00,,SKC,0.00,VWS V12.07,2013-10-23 12:53:00,
2013-10-23 07:59:00,34.7,32.3,30.13,WNW,297,3.0,5.0,91,0.00,,SKC,0.00,VWS V12.07,2013-10-23 12:59:00,
2013-10-23 08:05:00,34.9,32.3,30.13,WNW,290,5.0,5.0,90,0.00,,SKC,0.00,VWS V12.07,2013-10-23 13:05:00,
2013-10-23 08:11:00,35.2,32.6,30.13,WNW,293,2.0,7.0,90,0.00,,SKC,0.00,VWS V12.07,2013-10-23 13:11:00,
2013-10-23 08:17:00,35.6,32.7,30.14,West,264,3.0,7.0,89,0.00,,SKC,0.00,VWS V12.07,2013-10-23 13:17:00,
2013-10-23 08:23:00,36.1,32.9,30.14,WNW,288,3.0,7.0,88,0.00,,SKC,0.00,VWS V12.07,2013-10-23 13:23:00,
2013-10-23 08:29:00,36.5,33.0,30.14,NNW,328,2.0,8.0,87,0.00,,SKC,0.00,VWS V12.07,2013-10-23 13:29:00,
2013-10-23 08:35:00,36.8,33.0,30.14,WNW,293,2.0,8.0,86,0.00,,SKC,0.00,VWS V12.07,2013-10-23 13:35:00,
2013-10-23 08:41:00,37.1,33.3,30.14,NW,319,4.0,8.0,86,0.00,,SKC,0.00,VWS V12.07,2013-10-23 13:41:00,
2013-10-23 08:47:00,37.4,33.0,30.14,NW,311,2.0,8.0,84,0.00,,SKC,0.00,VWS V12.07,2013-10-23 13:47:00,
2013-10-23 08:53:00,37.7,32.7,30.14,WNW,295,4.0,8.0,82,0.00,,SKC,0.00,VWS V12.07,2013-10-23 13:53:00,
2013-10-23 08:59:00,38.0,32.7,30.14,WNW,295,4.0,8.0,81,0.00,,SKC,0.00,VWS V12.07,2013-10-23 13:59:00,
2013-10-23 09:05:00,38.2,32.6,30.14,WNW,285,5.0,6.0,80,0.00,,SKC,0.00,VWS V12.07,2013-10-23 14:05:00,
2013-10-23 09:11:00,38.4,32.5,30.14,WNW,298,2.0,9.0,79,0.00,,SKC,0.00,VWS V12.07,2013-10-23 14:11:00,
2013-10-23 09:19:00,38.8,32.5,30.14,NW,323,3.0,9.0,78,0.00,,SKC,0.00,VWS V12.07,2013-10-23 14:19:00,
2013-10-23 09:25:00,39.3,33.0,30.15,WSW,248,3.0,9.0,78,0.00,,SKC,0.00,VWS V12.07,2013-10-23 14:25:00,
2013-10-23 09:31:00,39.7,32.8,30.15,North,4,6.0,9.0,76,0.00,,SKC,0.00,VWS V12.07,2013-10-23 14:31:00,
2013-10-23 09:37:00,39.8,32.5,30.15,WNW,298,8.0,10.0,75,0.00,,SKC,0.00,VWS V12.07,2013-10-23 14:37:00,
2013-10-23 09:43:00,40.0,33.1,30.15,WNW,286,6.0,10.0,76,0.00,,SKC,0.00,VWS V12.07,2013-10-23 14:43:00,
2013-10-23 09:49:00,40.2,32.9,30.15,WNW,293,3.0,10.0,75,0.00,,SKC,0.00,VWS V12.07,2013-10-23 14:49:00,
2013-10-23 09:54:00,40.4,32.4,30.15,NW,309,4.0,10.0,73,0.00,,SKC,0.00,VWS V12.07,2013-10-23 14:54:00,
2013-10-23 10:00:00,40.4,32.1,30.15,WNW,298,9.0,10.0,72,0.00,,SKC,0.00,VWS V12.07,2013-10-23 15:00:00,
2013-10-23 10:06:00,40.6,32.0,30.15,NW,307,2.0,8.0,71,0.00,,SKC,0.00,VWS V12.07,2013-10-23 15:06:00,
2013-10-23 10:12:00,41.2,32.2,30.16,WNW,293,4.0,11.0,70,0.00,,SKC,0.00,VWS V12.07,2013-10-23 15:12:00,
2013-10-23 10:18:00,41.6,32.2,30.16,NNE,15,4.0,11.0,69,0.00,,SKC,0.00,VWS V12.07,2013-10-23 15:18:00,
2013-10-23 10:23:00,41.9,32.1,30.17,West,262,2.0,11.0,68,0.00,,SKC,0.00,VWS V12.07,2013-10-23 15:23:00,
2013-10-23 10:29:00,42.3,31.8,30.17,West,273,3.0,11.0,66,0.00,,SKC,0.00,VWS V12.07,2013-10-23 15:29:00,
2013-10-23 10:36:00,42.6,31.3,30.16,North,9,4.0,8.0,64,0.00,,SKC,0.00,VWS V12.07,2013-10-23 15:36:00,
2013-10-23 10:42:00,42.8,30.3,30.16,WNW,291,7.0,9.0,61,0.00,,SKC,0.00,VWS V12.07,2013-10-23 15:42:00,
2013-10-23 10:47:00,42.8,29.5,30.16,NNW,330,7.0,9.0,59,0.00,,SKC,0.00,VWS V12.07,2013-10-23 15:47:00,
2013-10-23 10:53:00,43.3,29.1,30.16,WNW,295,7.0,9.0,57,0.00,,SKC,0.00,VWS V12.07,2013-10-23 15:53:00,
2013-10-23 10:59:00,43.2,27.2,30.16,NW,305,7.0,11.0,53,0.00,,SKC,0.00,VWS V12.07,2013-10-23 15:59:00,
2013-10-23 11:05:00,42.6,27.1,30.15,WNW,295,0.0,10.0,54,0.00,,SKC,0.00,VWS V12.07,2013-10-23 16:05:00,
2013-10-23 11:10:00,43.1,27.6,30.15,SW,232,5.0,11.0,54,0.00,,SKC,0.00,VWS V12.07,2013-10-23 16:10:00,
2013-10-23 11:16:00,43.3,27.8,30.15,WNW,284,6.0,16.0,54,0.00,,SKC,0.00,VWS V12.07,2013-10-23 16:16:00,
2013-10-23 11:22:00,43.8,27.8,30.15,WNW,284,2.0,16.0,53,0.00,,SKC,0.00,VWS V12.07,2013-10-23 16:22:00,
2013-10-23 11:28:00,44.1,28.1,30.16,WNW,302,3.0,16.0,53,0.00,,SKC,0.00,VWS V12.07,2013-10-23 16:28:00,
2013-10-23 11:34:00,44.0,28.0,30.16,WNW,288,5.0,13.0,53,0.00,,SKC,0.00,VWS V12.07,2013-10-23 16:34:00,
2013-10-23 11:40:00,44.1,28.5,30.15,WNW,288,5.0,13.0,54,0.00,,SKC,0.00,VWS V12.07,2013-10-23 16:40:00,
2013-10-23 11:46:00,44.7,28.2,30.16,WNW,285,5.0,13.0,52,0.00,,SKC,0.00,VWS V12.07,2013-10-23 16:46:00,
2013-10-23 11:52:00,44.9,28.4,30.16,WNW,302,9.0,13.0,52,0.00,,SKC,0.00,VWS V12.07,2013-10-23 16:52:00,
2013-10-23 11:58:00,44.9,27.9,30.16,NW,309,9.0,14.0,51,0.00,,SKC,0.00,VWS V12.07,2013-10-23 16:58:00,
2013-10-23 12:04:00,44.8,27.3,30.16,WNW,287,6.0,13.0,50,0.00,,SKC,0.00,VWS V12.07,2013-10-23 17:04:00,
2013-10-23 12:09:00,44.6,27.6,30.16,WNW,288,5.0,13.0,51,0.00,,SKC,0.00,VWS V12.07,2013-10-23 17:09:00,
2013-10-23 12:15:00,44.9,27.4,30.15,WNW,295,4.0,16.0,50,0.00,,SKC,0.00,VWS V12.07,2013-10-23 17:15:00,
2013-10-23 12:21:00,45.4,27.4,30.15,WNW,295,4.0,16.0,49,0.00,,SKC,0.00,VWS V12.07,2013-10-23 17:21:00,
2013-10-23 12:27:00,45.4,27.9,30.15,WSW,245,7.0,16.0,50,0.00,,SKC,0.00,VWS V12.07,2013-10-23 17:27:00,
2013-10-23 12:33:00,45.9,27.8,30.15,NNE,19,7.0,10.0,49,0.00,,SKC,0.00,VWS V12.07,2013-10-23 17:33:00,
2013-10-23 12:39:00,46.4,27.8,30.15,NW,310,7.0,10.0,48,0.00,,SKC,0.00,VWS V12.07,2013-10-23 17:39:00,
2013-10-23 12:45:00,46.1,27.5,30.15,WSW,249,2.0,10.0,48,0.00,,SKC,0.00,VWS V12.07,2013-10-23 17:45:00,
2013-10-23 12:51:00,46.8,27.6,30.15,NW,315,9.0,11.0,47,0.00,,SKC,0.00,VWS V12.07,2013-10-23 17:51:00,
2013-10-23 12:57:00,46.7,27.6,30.14,WNW,282,10.0,13.0,47,0.00,,SKC,0.00,VWS V12.07,2013-10-23 17:57:00,
2013-10-23 13:03:00,46.3,27.2,30.14,WNW,298,4.0,7.0,47,0.00,,SKC,0.00,VWS V12.07,2013-10-23 18:03:00,
2013-10-23 13:09:00,46.4,27.3,30.14,NNW,330,10.0,14.0,47,0.00,,SKC,0.00,VWS V12.07,2013-10-23 18:09:00,
2013-10-23 13:15:00,46.0,26.9,30.14,WNW,293,3.0,14.0,47,0.00,,SKC,0.00,VWS V12.07,2013-10-23 18:15:00,
2013-10-23 13:21:00,46.0,27.9,30.14,NW,319,2.0,14.0,49,0.00,,SKC,0.00,VWS V12.07,2013-10-23 18:21:00,
2013-10-23 13:27:00,46.1,27.5,30.14,NW,314,4.0,14.0,48,0.00,,SKC,0.00,VWS V12.07,2013-10-23 18:27:00,
2013-10-23 13:33:00,46.1,27.5,30.14,WNW,290,1.0,9.0,48,0.00,,SKC,0.00,VWS V12.07,2013-10-23 18:33:00,
2013-10-23 13:39:00,45.9,26.8,30.13,West,281,2.0,9.0,47,0.00,,SKC,0.00,VWS V12.07,2013-10-23 18:39:00,
2013-10-23 13:45:00,45.8,27.2,30.13,WSW,245,2.0,9.0,48,0.00,,SKC,0.00,VWS V12.07,2013-10-23 18:45:00,
2013-10-23 13:51:00,46.1,28.0,30.13,West,280,4.0,9.0,49,0.00,,SKC,0.00,VWS V12.07,2013-10-23 18:51:00,
2013-10-23 13:57:00,46.6,27.5,30.13,NW,323,4.0,9.0,47,0.00,,SKC,0.00,VWS V12.07,2013-10-23 18:57:00,
2013-10-23 14:03:00,46.9,27.7,30.12,WNW,290,6.0,9.0,47,0.00,,SKC,0.00,VWS V12.07,2013-10-23 19:03:00,
2013-10-23 14:09:00,47.6,28.4,30.12,West,273,5.0,14.0,47,0.00,,SKC,0.00,VWS V12.07,2013-10-23 19:09:00,
2013-10-23 14:15:00,47.5,28.8,30.12,WNW,295,8.0,14.0,48,0.00,,SKC,0.00,VWS V12.07,2013-10-23 19:15:00,
2013-10-23 14:21:00,47.7,28.0,30.11,West,280,3.0,14.0,46,0.00,,SKC,0.00,VWS V12.07,2013-10-23 19:21:00,
2013-10-23 14:27:00,47.7,28.0,30.11,WNW,290,6.0,14.0,46,0.00,,SKC,0.00,VWS V12.07,2013-10-23 19:27:00,
2013-10-23 14:33:00,47.4,28.2,30.11,WSW,253,5.0,11.0,47,0.00,,SKC,0.00,VWS V12.07,2013-10-23 19:33:00,
2013-10-23 14:39:00,47.3,28.6,30.10,SSW,207,1.0,11.0,48,0.00,,SKC,0.00,VWS V12.07,2013-10-23 19:39:00,
2013-10-23 14:45:00,47.5,29.3,30.10,WNW,290,4.0,11.0,49,0.00,,SKC,0.00,VWS V12.07,2013-10-23 19:45:00,
2013-10-23 14:51:00,47.0,28.3,30.11,NW,308,11.0,11.0,48,0.00,,SKC,0.00,VWS V12.07,2013-10-23 19:51:00,
2013-10-23 14:57:00,46.4,28.3,30.11,WNW,293,4.0,12.0,49,0.00,,SKC,0.00,VWS V12.07,2013-10-23 19:57:00,
2013-10-23 15:06:00,46.3,28.7,30.12,WNW,291,4.0,9.0,50,0.00,,SKC,0.00,VWS V12.07,2013-10-23 20:06:00,
2013-10-23 15:12:00,46.1,28.5,30.12,West,273,5.0,11.0,50,0.00,,SKC,0.00,VWS V12.07,2013-10-23 20:12:00,
2013-10-23 15:18:00,45.9,28.8,30.12,WNW,297,6.0,11.0,51,0.00,,SKC,0.00,VWS V12.07,2013-10-23 20:18:00,
2013-10-23 15:24:00,45.8,29.2,30.13,WNW,294,12.0,14.0,52,0.00,,SKC,0.00,VWS V12.07,2013-10-23 20:24:00,
2013-10-23 15:30:00,44.7,31.7,30.12,ESE,113,0.0,14.0,60,0.00,,SKC,0.00,VWS V12.07,2013-10-23 20:30:00,
2013-10-23 15:36:00,44.5,31.5,30.12,WNW,294,7.0,11.0,60,0.00,,SKC,0.00,VWS V12.07,2013-10-23 20:36:00,
2013-10-23 15:42:00,44.0,31.4,30.12,NW,305,3.0,11.0,61,0.00,,SKC,0.00,VWS V12.07,2013-10-23 20:42:00,
2013-10-23 15:49:00,43.8,30.8,30.12,WNW,290,2.0,11.0,60,0.00,,SKC,0.00,VWS V12.07,2013-10-23 20:49:00,
2013-10-23 15:55:00,43.9,30.9,30.12,WNW,284,2.0,11.0,60,0.00,,SKC,0.00,VWS V12.07,2013-10-23 20:55:00,
2013-10-23 16:01:00,44.2,31.6,30.11,SW,236,2.0,2.0,61,0.00,,SKC,0.00,VWS V12.07,2013-10-23 21:01:00,
2013-10-23 16:07:00,44.1,30.7,30.12,WNW,300,1.0,9.0,59,0.00,,SKC,0.00,VWS V12.07,2013-10-23 21:07:00,
2013-10-23 16:13:00,44.1,31.5,30.12,West,281,5.0,9.0,61,0.00,,SKC,0.00,VWS V12.07,2013-10-23 21:13:00,
2013-10-23 16:19:00,44.0,31.4,30.12,SW,233,2.0,9.0,61,0.00,,SKC,0.00,VWS V12.07,2013-10-23 21:19:00,
2013-10-23 16:25:00,43.7,31.5,30.12,WNW,297,7.0,9.0,62,0.00,,SKC,0.00,VWS V12.07,2013-10-23 21:25:00,
2013-10-23 16:31:00,43.3,31.6,30.13,WNW,293,6.0,6.0,63,0.00,,SKC,0.00,VWS V12.07,2013-10-23 21:31:00,
2013-10-23 16:37:00,43.2,31.5,30.13,West,271,2.0,8.0,63,0.00,,SKC,0.00,VWS V12.07,2013-10-23 21:37:00,
2013-10-23 16:43:00,43.2,31.9,30.13,NW,305,3.0,8.0,64,0.00,,SKC,0.00,VWS V12.07,2013-10-23 21:43:00,
2013-10-23 16:49:00,43.1,31.8,30.13,WNW,291,2.0,8.0,64,0.00,,SKC,0.00,VWS V12.07,2013-10-23 21:49:00,
2013-10-23 16:55:00,43.1,32.2,30.13,WNW,288,3.0,8.0,65,0.00,,SKC,0.00,VWS V12.07,2013-10-23 21:55:00,
2013-10-23 17:02:00,43.0,32.1,30.13,WNW,297,1.0,4.0,65,0.00,,SKC,0.00,VWS V12.07,2013-10-23 22:02:00,
2013-10-23 17:11:00,42.9,32.3,30.14,WNW,290,2.0,5.0,66,0.00,,SKC,0.00,VWS V12.07,2013-10-23 22:11:00,
2013-10-23 17:17:00,42.8,32.2,30.13,WNW,284,3.0,6.0,66,0.00,,SKC,0.00,VWS V12.07,2013-10-23 22:17:00,
2013-10-23 17:23:00,42.7,32.2,30.13,WNW,294,2.0,6.0,66,0.00,,SKC,0.00,VWS V12.07,2013-10-23 22:23:00,
2013-10-23 17:29:00,42.5,32.7,30.14,WNW,297,0.0,6.0,68,0.00,,SKC,0.00,VWS V12.07,2013-10-23 22:29:00,
2013-10-23 17:35:00,42.5,33.1,30.14,WNW,297,0.0,4.0,69,0.00,,SKC,0.00,VWS V12.07,2013-10-23 22:35:00,
2013-10-23 17:41:00,42.4,33.0,30.14,WNW,289,4.0,6.0,69,0.00,,SKC,0.00,VWS V12.07,2013-10-23 22:41:00,
2013-10-23 17:47:00,42.3,32.9,30.15,West,271,4.0,6.0,69,0.00,,SKC,0.00,VWS V12.07,2013-10-23 22:47:00,
2013-10-23 17:53:00,42.1,33.4,30.14,WNW,297,5.0,8.0,71,0.00,,SKC,0.00,VWS V12.07,2013-10-23 22:53:00,
2013-10-23 17:59:00,41.8,33.5,30.14,NW,316,4.0,8.0,72,0.00,,SKC,0.00,VWS V12.07,2013-10-23 22:59:00,
2013-10-23 18:05:00,41.6,33.3,30.15,WNW,289,2.0,6.0,72,0.00,,SKC,0.00,VWS V12.07,2013-10-23 23:05:00,
2013-10-23 18:11:00,41.5,33.5,30.15,NW,313,3.0,6.0,73,0.00,,SKC,0.00,VWS V12.07,2013-10-23 23:11:00,
2013-10-23 18:17:00,41.4,33.8,30.15,NW,317,3.0,8.0,74,0.00,,SKC,0.00,VWS V12.07,2013-10-23 23:17:00,
2013-10-23 18:23:00,41.2,33.9,30.15,NW,325,3.0,8.0,75,0.00,,SKC,0.00,VWS V12.07,2013-10-23 23:23:00,
2013-10-23 18:29:00,41.1,33.8,30.16,WNW,293,4.0,8.0,75,0.00,,SKC,0.00,VWS V12.07,2013-10-23 23:29:00,
2013-10-23 18:35:00,41.0,34.0,30.16,WNW,293,4.0,6.0,76,0.00,,SKC,0.00,VWS V12.07,2013-10-23 23:35:00,
2013-10-23 18:41:00,40.8,34.5,30.16,WSW,249,3.0,6.0,78,0.00,,SKC,0.00,VWS V12.07,2013-10-23 23:41:00,
2013-10-23 18:47:00,40.5,34.8,30.16,WNW,283,5.0,6.0,80,0.00,,SKC,0.00,VWS V12.07,2013-10-23 23:47:00,
2013-10-23 18:54:00,40.2,35.2,30.16,West,281,6.0,7.0,82,0.00,,SKC,0.00,VWS V12.07,2013-10-23 23:54:00,
2013-10-23 19:00:00,39.9,35.5,30.17,WNW,284,3.0,7.0,84,0.00,,SKC,0.00,VWS V12.07,2013-10-24 00:00:00,
2013-10-23 19:06:00,39.7,35.6,30.17,WNW,290,2.0,4.0,85,0.00,,SKC,0.00,VWS V12.07,2013-10-24 00:06:00,
2013-10-23 19:12:00,39.5,36.0,30.17,WNW,293,1.0,4.0,87,0.00,,SKC,0.00,VWS V12.07,2013-10-24 00:12:00,
2013-10-23 19:19:00,39.3,35.8,30.17,WNW,293,2.0,4.0,87,0.01,,SKC,0.01,VWS V12.07,2013-10-24 00:19:00,
2013-10-23 19:24:00,39.3,35.8,30.17,West,274,2.0,6.0,87,0.01,,SKC,0.01,VWS V12.07,2013-10-24 00:24:00,
2013-10-23 19:30:00,39.2,36.0,30.17,WNW,293,2.0,6.0,88,0.01,,SKC,0.01,VWS V12.07,2013-10-24 00:30:00,
2013-10-23 19:36:00,39.1,35.8,30.17,West,273,0.0,4.0,88,0.01,,SKC,0.01,VWS V12.07,2013-10-24 00:36:00,
2013-10-23 19:42:00,39.0,36.0,30.17,WNW,293,3.0,5.0,89,0.01,,SKC,0.01,VWS V12.07,2013-10-24 00:42:00,
2013-10-23 19:48:00,38.9,35.9,30.18,WNW,291,4.0,5.0,89,0.01,,SKC,0.01,VWS V12.07,2013-10-24 00:48:00,
2013-10-23 19:54:00,38.9,35.9,30.18,WNW,283,3.0,5.0,89,0.01,,SKC,0.01,VWS V12.07,2013-10-24 00:54:00,
2013-10-23 20:00:00,38.7,36.0,30.18,WNW,283,2.0,6.0,90,0.01,,SKC,0.01,VWS V12.07,2013-10-24 01:00:00,
2013-10-23 20:06:00,38.6,35.9,30.18,WNW,284,0.0,2.0,90,0.01,,SKC,0.01,VWS V12.07,2013-10-24 01:06:00,
2013-10-23 20:12:00,38.5,36.1,30.18,WNW,293,2.0,3.0,91,0.01,,SKC,0.01,VWS V12.07,2013-10-24 01:12:00,
2013-10-23 20:18:00,38.5,36.1,30.18,WNW,287,1.0,4.0,91,0.01,,SKC,0.01,VWS V12.07,2013-10-24 01:18:00,
2013-10-23 20:24:00,38.4,36.0,30.18,WNW,288,5.0,5.0,91,0.01,,SKC,0.01,VWS V12.07,2013-10-24 01:24:00,
2013-10-23 20:30:00,38.4,36.0,30.18,WNW,282,2.0,6.0,91,0.01,,SKC,0.01,VWS V12.07,2013-10-24 01:30:00,
2013-10-23 20:36:00,38.4,36.0,30.18,WNW,297,4.0,4.0,91,0.00,,SKC,0.01,VWS V12.07,2013-10-24 01:36:00,
2013-10-23 20:43:00,38.4,36.0,30.18,WNW,297,2.0,4.0,91,0.00,,SKC,0.01,VWS V12.07,2013-10-24 01:43:00,
2013-10-23 20:49:00,38.3,35.9,30.18,WNW,298,1.0,4.0,91,0.00,,SKC,0.01,VWS V12.07,2013-10-24 01:49:00,
2013-10-23 20:55:00,38.3,35.9,30.18,WSW,240,0.0,4.0,91,0.00,,SKC,0.01,VWS V12.07,2013-10-24 01:55:00,
2013-10-23 21:01:00,38.3,35.9,30.18,West,276,0.0,1.0,91,0.00,,SKC,0.01,VWS V12.07,2013-10-24 02:01:00,
2013-10-23 21:07:00,38.2,36.1,30.18,WNW,288,0.0,2.0,92,0.00,,SKC,0.01,VWS V12.07,2013-10-24 02:07:00,
2013-10-23 21:14:00,38.1,36.0,30.18,WNW,302,0.0,2.0,92,0.00,,SKC,0.01,VWS V12.07,2013-10-24 02:14:00,
2013-10-23 21:20:00,38.1,36.0,30.18,WNW,302,0.0,2.0,92,0.00,,SKC,0.01,VWS V12.07,2013-10-24 02:20:00,
2013-10-23 21:26:00,38.0,35.9,30.18,WNW,297,0.0,2.0,92,0.00,,SKC,0.01,VWS V12.07,2013-10-24 02:26:00,
2013-10-23 21:32:00,37.8,35.7,30.18,WNW,288,0.0,0.0,92,0.00,,SKC,0.01,VWS V12.07,2013-10-24 02:32:00,
2013-10-23 21:39:00,37.7,35.6,30.18,WNW,288,0.0,0.0,92,0.00,,SKC,0.01,VWS V12.07,2013-10-24 02:39:00,
2013-10-23 21:44:00,37.7,35.9,30.18,WNW,288,0.0,0.0,93,0.00,,SKC,0.01,VWS V12.07,2013-10-24 02:44:00,
2013-10-23 21:50:00,37.7,35.9,30.18,WNW,288,0.0,0.0,93,0.00,,SKC,0.01,VWS V12.07,2013-10-24 02:50:00,
2013-10-23 21:56:00,37.7,35.9,30.18,WNW,288,0.0,0.0,93,0.00,,SKC,0.01,VWS V12.07,2013-10-24 02:56:00,
2013-10-23 22:02:00,37.6,35.8,30.18,WNW,288,0.0,0.0,93,0.00,,SKC,0.01,VWS V12.07,2013-10-24 03:02:00,
2013-10-23 22:08:00,37.6,35.8,30.18,WNW,288,0.0,0.0,93,0.00,,SKC,0.01,VWS V12.07,2013-10-24 03:08:00,
2013-10-23 22:14:00,37.6,35.8,30.18,WNW,288,0.0,0.0,93,0.00,,SKC,0.01,VWS V12.07,2013-10-24 03:14:00,
2013-10-23 22:20:00,37.6,36.0,30.18,WNW,288,0.0,0.0,94,0.00,,SKC,0.01,VWS V12.07,2013-10-24 03:20:00,
2013-10-23 22:26:00,37.6,36.0,30.18,WNW,288,0.0,0.0,94,0.00,,SKC,0.01,VWS V12.07,2013-10-24 03:26:00,
2013-10-23 22:32:00,37.6,35.8,30.18,WNW,288,0.0,0.0,93,0.00,,SKC,0.01,VWS V12.07,2013-10-24 03:32:00,
2013-10-23 22:39:00,37.6,36.0,30.19,WNW,288,0.0,0.0,94,0.00,,SKC,0.01,VWS V12.07,2013-10-24 03:39:00,
2013-10-23 22:44:00,37.6,36.0,30.18,WNW,288,0.0,0.0,94,0.00,,SKC,0.01,VWS V12.07,2013-10-24 03:44:00,
2013-10-23 22:50:00,37.6,36.0,30.18,WNW,288,0.0,0.0,94,0.00,,SKC,0.01,VWS V12.07,2013-10-24 03:50:00,
2013-10-23 22:56:00,37.7,36.1,30.18,WNW,288,0.0,0.0,94,0.00,,SKC,0.01,VWS V12.07,2013-10-24 03:56:00,
2013-10-23 23:02:00,37.7,36.1,30.18,WNW,288,0.0,0.0,94,0.00,,SKC,0.01,VWS V12.07,2013-10-24 04:02:00,
2013-10-23 23:05:00,37.7,36.1,30.18,WNW,288,0.0,0.0,94,0.00,,SKC,0.01,VWS V12.07,2013-10-24 04:05:00,
2013-10-23 23:11:00,37.7,36.1,30.18,WNW,288,0.0,0.0,94,0.00,,SKC,0.01,VWS V12.07,2013-10-24 04:11:00,
2013-10-23 23:14:00,37.7,36.1,30.18,WNW,288,0.0,0.0,94,0.00,,SKC,0.01,VWS V12.07,2013-10-24 04:14:00,
2013-10-23 23:17:00,37.8,36.2,30.18,WNW,288,0.0,0.0,94,0.00,,SKC,0.01,VWS V12.07,2013-10-24 04:17:00,
2013-10-23 23:23:00,37.9,36.3,30.18,West,272,0.0,0.0,94,0.00,,SKC,0.01,VWS V12.07,2013-10-24 04:23:00,
2013-10-23 23:26:00,37.9,36.3,30.18,West,273,0.0,0.0,94,0.00,,SKC,0.01,VWS V12.07,2013-10-24 04:26:00,
2013-10-23 23:35:00,38.0,36.4,30.18,West,273,0.0,0.0,94,0.00,,SKC,0.01,VWS V12.07,2013-10-24 04:35:00,
2013-10-23 23:41:00,38.1,36.5,30.18,West,273,0.0,0.0,94,0.00,,SKC,0.01,VWS V12.07,2013-10-24 04:41:00,
2013-10-23 23:47:00,38.1,36.5,30.18,WNW,288,0.0,1.0,94,0.00,,SKC,0.01,VWS V12.07,2013-10-24 04:47:00,
2013-10-23 23:53:00,38.1,36.5,30.18,SW,235,0.0,2.0,94,0.00,,SKC,0.01,VWS V12.07,2013-10-24 04:53:00,
2013-10-23 23:59:00,38.2,36.6,30.18,WSW,248,0.0,2.0,94,0.00,,SKC,0.01,VWS V12.07,2013-10-24 04:59:00,